Wind_Speed
16 15 14 13 12 11 11 11 11 11 11 11 11 11 11 11 10 10 10 11 11 11 10 10 9 9 10 10 9 10 10 9 9 9 9 9 8 8 8 9 9 9 8
16 16 15 15 14 12 12 12 11 10 11 11 12 12 11 11 12 12 12 12 12 12 11 11 10 11 11 10 10 10 10 10 10 9 9 9 9 9 9 9 9 9 9
18 17 16 15 14 14 14 14 13 13 12 12 13 13 12 13 13 13 13 12 12 12 13 13 12 12 11 11 11 11 11 10 10 10 10 10 9 9 9 9 10 10 10
20 18 17 17 16 16 15 15 15 14 14 14 14 14 14 14 14 13 13 13 14 14 13 13 13 12 12 12 12 11 11 11 11 11 11 11 10 10 10 10 11 11 11
22 20 19 18 18 17 17 17 17 17 16 16 15 15 15 15 15 14 14 15 15 15 15 14 14 13 13 13 12 12 12 12 11 11 11 11 11 11 11 12 12 12 12
22 21 20 20 20 19 18 18 18 18 18 17 17 16 16 16 16 16 16 16 16 16 16 15 15 15 14 13 13 13 13 12 12 12 12 12 12 12 12 13 13 14 13
22 22 22 21 21 20 19 19 19 19 19 19 19 18 18 18 18 17 17 17 17 17 17 17 17 16 15 15 15 15 14 14 14 13 14 14 14 14 14 15 15 15 15
22 22 22 20 21 21 21 21 20 20 20 20 20 20 20 20 19 19 19 19 18 18 18 19 18 17 17 16 16 16 16 16 16 16 15 16 16 16 17 17 17 17 17
22 23 23 21 21 21 21 21 20 21 21 21 21 21 21 21 21 21 21 21 19 19 19 20 19 18 18 18 17 17 18 18 18 18 17 18 18 18 18 18 18 18 19
23 24 23 22 21 20 20 21 21 21 22 22 22 22 22 22 22 22 23 22 21 21 22 21 20 19 19 19 19 19 19 19 19 19 19 19 19 19 19 19 18 19 19
25 24 24 23 21 21 21 22 22 23 23 23 23 23 23 23 23 24 23 23 22 22 22 22 22 21 20 20 21 21 20 21 21 21 20 20 19 19 19 19 20 20 21
26 26 25 25 24 23 23 23 23 24 24 24 24 24 24 24 24 24 24 24 24 24 23 23 23 22 22 22 22 22 22 22 22 22 21 21 20 20 20 21 21 21 20
27 28 27 26 26 26 25 24 24 25 25 25 25 25 25 25 25 25 25 25 25 25 25 24 24 24 24 24 24 24 24 24 23 23 23 22 22 21 22 22 21 21 22
29 29 29 29 28 28 26 25 26 26 26 26 26 26 26 26 27 27 27 27 26 26 26 25 25 25 24 24 25 24 24 24 24 24 24 24 23 23 23 23 22 22 22
29 29 30 29 29 29 28 28 27 27 27 27 27 27 27 28 28 28 28 27 27 27 27 26 26 26 26 26 25 25 25 25 24 24 25 25 24 24 24 23 23 23 23
29 30 30 31 29 28 27 27 28 28 27 28 28 29 29 28 28 28 28 28 28 27 27 27 27 27 27 27 27 26 25 24 24 24 25 25 25 25 25 24 25 25 24
30 30 30 31 31 30 27 28 29 29 29 29 29 29 29 29 28 28 29 28 28 28 27 27 27 27 26 26 26 26 25 24 24 24 24 23 23 24 24 25 25 25 25
30 30 30 30 30 29 29 28 28 29 29 29 29 30 30 30 30 29 29 28 28 28 27 27 27 27 26 25 24 24 24 24 24 24 24 24 23 24 24 25 25 25 25
29 30 30 29 29 29 29 28 28 28 28 28 28 29 30 30 30 30 29 29 29 28 27 27 27 26 26 25 25 24 24 23 23 23 24 23 23 23 24 24 24 24 24
30 30 29 29 28 28 29 28 29 29 28 28 28 29 30 30 30 30 30 30 29 29 28 28 27 26 26 26 25 25 24 24 24 24 24 24 24 23 24 23 23 23 23
30 30 29 28 28 28 28 28 28 28 27 28 28 29 30 29 29 30 30 30 30 29 29 29 27 27 26 26 26 24 24 24 24 24 23 23 24 24 24 24 24 24 25
29 29 29 28 27 27 27 28 27 27 27 27 28 28 28 28 29 29 30 30 30 30 29 28 28 28 27 27 26 25 25 24 24 24 23 23 24 24 25 25 25 25 26
27 27 27 27 26 26 26 26 26 27 27 27 27 28 28 27 27 28 29 29 28 28 29 29 29 29 28 28 27 26 25 24 24 24 24 24 24 24 24 24 24 24 25
27 26 26 25 25 25 25 25 24 25 26 26 26 27 27 26 26 26 27 28 27 27 28 29 29 28 28 27 27 26 25 25 25 24 24 24 24 24 24 23 23 24 25
26 26 25 25 26 26 26 25 24 25 25 25 26 26 26 26 26 26 26 27 27 27 28 28 28 28 27 26 26 26 26 26 25 25 25 25 25 25 25 25 25 25 25
27 26 26 26 25 26 26 25 25 25 25 25 25 25 25 25 25 25 26 26 27 27 27 28 28 27 27 26 26 26 26 26 26 27 27 26 26 26 26 26 26 26 27
Wind_Direction
271 273 275 276 276 279 283 286 288 292 294 295 297 300 301 301 300 298 299 299 300 303 308 310 308 303 303 304 301 297 298 296 296 294 293 292 286 283 281 281 280 278 276
268 271 275 277 274 275 279 282 286 290 293 294 295 296 297 297 297 299 299 297 296 298 300 302 305 303 303 302 300 300 297 296 297 298 296 295 289 285 283 280 279 280 280
271 270 272 273 273 275 277 276 277 283 289 293 293 291 293 295 296 298 301 295 294 294 296 298 301 302 301 299 298 299 297 294 294 294 293 292 291 286 285 283 281 281 282
268 267 266 270 272 273 274 273 273 277 284 288 290 290 290 293 295 297 299 296 295 296 293 296 298 300 300 297 295 295 296 294 294 292 290 290 290 287 281 283 284 282 284
266 266 264 266 268 269 272 274 274 275 280 285 288 288 289 289 292 295 298 296 293 291 290 291 293 296 298 296 293 293 293 292 293 292 293 292 290 287 284 282 284 283 283
266 266 265 264 265 265 268 272 272 274 278 281 284 286 287 287 289 293 294 296 292 289 288 289 291 292 293 292 290 290 289 289 290 290 291 290 288 287 287 286 286 286 283
268 266 266 263 263 265 267 269 270 272 274 277 280 282 284 285 286 290 293 295 294 289 286 287 288 288 287 288 288 287 287 286 286 289 289 289 287 285 285 287 288 286 284
266 267 266 266 266 266 268 269 268 269 272 275 278 280 282 284 285 286 289 291 291 289 286 286 286 284 283 284 285 285 284 286 286 286 287 288 286 285 284 286 287 286 285
262 265 265 266 267 266 266 268 267 268 270 272 276 279 281 282 283 284 285 286 287 286 285 286 284 283 281 281 282 283 283 283 283 283 285 285 286 286 285 285 286 286 287
264 266 264 264 266 269 268 267 266 267 268 269 272 276 278 279 280 281 282 282 285 286 285 283 283 281 280 280 280 282 283 282 280 280 282 282 284 285 284 285 286 287 288
262 264 263 266 265 267 268 268 268 267 268 269 271 273 276 277 278 279 280 280 282 284 286 284 282 281 280 280 280 281 281 281 280 280 281 282 283 284 285 285 286 287 288
262 263 263 265 266 267 267 266 267 267 268 270 272 273 276 277 278 280 279 279 281 282 284 284 281 280 279 279 280 282 282 281 280 279 279 280 282 282 283 285 286 286 287
259 261 263 262 262 263 262 264 265 267 268 270 272 274 275 276 277 279 278 278 279 279 281 281 280 281 280 279 279 280 281 281 279 279 280 280 280 280 283 284 285 286 286
259 260 263 263 263 265 262 265 265 266 268 269 270 272 276 276 276 277 277 277 277 278 279 280 281 281 280 279 279 279 279 279 279 278 279 280 280 279 280 282 283 284 286
260 261 264 266 265 266 266 266 267 267 267 268 270 272 274 275 276 277 276 275 275 277 277 278 279 280 280 279 278 278 278 278 278 278 278 279 280 280 280 280 282 283 285
261 262 264 265 266 266 266 265 266 268 269 269 269 271 273 273 275 276 275 274 274 275 275 276 277 280 281 279 277 275 276 277 277 277 278 280 281 280 280 281 282 284 285
263 262 262 263 265 266 266 266 268 269 272 272 271 271 273 274 274 275 274 273 273 275 277 277 277 278 279 279 278 275 275 276 275 277 279 280 281 280 280 280 281 283 284
262 264 262 261 264 265 266 268 269 272 272 272 272 272 272 273 273 273 273 274 274 275 278 279 279 277 276 278 278 276 274 276 276 277 278 279 280 279 280 280 281 283 283
262 263 262 263 264 265 265 267 269 270 273 273 273 273 272 272 272 273 273 273 274 275 276 277 277 277 276 277 277 276 276 275 275 276 277 278 277 277 280 281 281 282 283
262 263 263 262 264 264 265 266 268 268 270 271 272 273 273 272 272 271 272 273 273 273 273 273 274 275 276 276 276 277 276 276 276 276 277 278 277 278 279 280 280 280 282
261 262 262 263 264 264 265 266 267 268 270 272 272 272 273 273 272 271 271 271 270 270 271 272 272 272 275 275 275 277 277 277 276 276 277 278 278 277 279 280 280 282 283
260 261 262 263 264 264 265 265 267 269 270 272 274 275 274 272 272 272 271 271 270 269 268 271 271 272 273 274 274 276 277 277 277 277 277 278 278 278 278 280 281 282 284
262 261 262 262 263 264 264 265 268 270 270 271 273 275 274 272 271 271 270 270 270 270 269 270 271 271 271 271 272 273 276 277 278 277 278 279 278 278 278 279 280 282 285
262 261 262 262 262 262 263 265 269 270 269 271 274 276 275 273 272 272 272 271 269 268 269 269 270 270 271 271 271 272 274 276 277 278 277 277 276 275 278 279 280 282 284
262 260 261 262 261 262 264 264 268 269 270 273 275 277 276 275 274 273 273 272 271 270 269 271 272 270 271 273 272 274 275 274 276 277 277 276 276 275 275 276 279 281 283
260 261 260 261 262 262 262 264 266 269 271 273 275 276 276 276 277 276 274 273 272 272 270 269 271 272 272 272 271 273 275 274 275 276 276 275 276 275 274 276 278 281 283
Height
5876 5875 5875 5875 5876 5876 5875 5875 5875 5875 5875 5875 5874 5874 5873 5873 5873 5872 5872 5871 5871 5870 5869 5869 5868 5867 5867 5867 5866 5866 5865 5864 5864 5863 5863 5863 5863 5863 5863 5863 5863 5863 5863
5872 5872 5872 5873 5873 5873 5873 5873 5873 5873 5873 5873 5873 5872 5872 5872 5871 5871 5870 5870 5869 5869 5868 5867 5867 5866 5865 5865 5864 5864 5863 5863 5862 5862 5861 5861 5861 5861 5860 5860 5861 5861 5861
5869 5869 5869 5870 5870 5870 5871 5871 5871 5871 5871 5871 5871 5870 5870 5870 5870 5869 5868 5868 5867 5867 5866 5866 5865 5864 5864 5863 5862 5862 5861 5861 5860 5860 5859 5859 5859 5859 5859 5858 5858 5858 5859
5865 5866 5866 5867 5867 5868 5868 5868 5868 5869 5869 5869 5868 5868 5868 5868 5868 5867 5866 5866 5865 5865 5864 5864 5863 5862 5861 5861 5860 5859 5859 5858 5858 5857 5857 5857 5856 5856 5856 5856 5856 5856 5856
5861 5862 5863 5863 5864 5864 5865 5865 5866 5866 5866 5866 5866 5866 5866 5865 5865 5864 5864 5863 5863 5862 5862 5862 5861 5860 5859 5859 5858 5857 5856 5856 5856 5855 5855 5854 5854 5854 5854 5854 5854 5853 5853
5858 5858 5859 5860 5860 5861 5861 5862 5862 5863 5863 5863 5863 5863 5863 5862 5862 5862 5861 5861 5860 5860 5859 5859 5858 5858 5857 5856 5855 5855 5854 5853 5853 5853 5852 5852 5852 5851 5851 5851 5850 5850 5850
5854 5855 5855 5855 5856 5857 5857 5858 5859 5859 5860 5860 5860 5860 5860 5859 5859 5859 5858 5858 5857 5856 5856 5856 5855 5855 5854 5853 5853 5852 5851 5850 5850 5849 5849 5849 5849 5848 5848 5848 5847 5847 5847
5851 5851 5851 5851 5852 5852 5853 5854 5855 5855 5856 5856 5856 5856 5856 5855 5855 5855 5854 5854 5854 5853 5853 5852 5852 5851 5851 5850 5849 5849 5848 5847 5846 5846 5846 5846 5845 5845 5844 5844 5844 5843 5843
5845 5846 5845 5846 5847 5848 5849 5849 5850 5851 5852 5852 5852 5852 5852 5851 5851 5851 5850 5850 5849 5849 5849 5848 5848 5847 5847 5846 5846 5845 5844 5844 5843 5843 5842 5842 5841 5841 5840 5840 5840 5840 5839
5840 5841 5841 5841 5843 5843 5843 5844 5845 5846 5846 5847 5847 5847 5847 5847 5847 5846 5846 5846 5846 5845 5844 5844 5843 5843 5842 5842 5841 5841 5840 5839 5839 5839 5838 5838 5837 5837 5836 5836 5835 5835 5834
5835 5836 5836 5836 5837 5838 5839 5839 5840 5841 5841 5841 5842 5842 5842 5842 5842 5841 5841 5841 5841 5841 5840 5839 5838 5838 5837 5837 5836 5836 5835 5835 5834 5834 5834 5833 5833 5832 5832 5831 5830 5830 5830
5829 5830 5831 5831 5831 5832 5834 5834 5834 5835 5836 5836 5836 5837 5837 5837 5836 5836 5836 5836 5835 5835 5835 5834 5833 5832 5832 5831 5831 5831 5830 5829 5829 5829 5828 5828 5827 5827 5827 5826 5826 5825 5824
5823 5824 5824 5825 5825 5825 5826 5828 5828 5829 5829 5830 5830 5831 5831 5831 5831 5830 5830 5830 5830 5829 5829 5828 5828 5827 5826 5826 5825 5825 5824 5824 5823 5823 5823 5822 5822 5822 5821 5821 5820 5819 5819
5817 5817 5817 5817 5818 5818 5818 5820 5822 5822 5823 5823 5824 5825 5825 5825 5825 5824 5824 5824 5823 5823 5823 5822 5821 5821 5820 5819 5819 5818 5818 5817 5817 5817 5817 5816 5816 5816 5815 5815 5814 5813 5813
5810 5811 5810 5810 5810 5811 5812 5812 5814 5815 5816 5817 5817 5818 5818 5818 5818 5817 5817 5817 5817 5816 5816 5816 5815 5814 5813 5812 5812 5812 5811 5811 5811 5810 5810 5810 5810 5809 5809 5808 5808 5807 5806
5803 5803 5804 5803 5803 5803 5804 5805 5807 5808 5809 5809 5810 5810 5811 5811 5810 5810 5810 5810 5810 5809 5809 5809 5808 5807 5806 5805 5804 5804 5804 5804 5804 5804 5803 5803 5803 5803 5802 5802 5801 5801 5800
5795 5796 5796 5796 5796 5796 5797 5798 5798 5800 5801 5801 5802 5802 5803 5803 5803 5802 5802 5802 5802 5802 5802 5801 5801 5800 5799 5798 5797 5797 5797 5797 5797 5797 5796 5796 5796 5796 5796 5796 5795 5795 5794
5788 5789 5789 5789 5789 5790 5790 5790 5792 5792 5793 5793 5793 5794 5794 5795 5795 5795 5794 5794 5794 5794 5794 5794 5793 5793 5792 5791 5790 5790 5790 5790 5790 5790 5790 5790 5789 5789 5789 5789 5789 5788 5787
5781 5781 5781 5782 5782 5783 5783 5784 5785 5785 5785 5784 5785 5785 5786 5787 5787 5787 5786 5787 5787 5787 5787 5787 5786 5786 5785 5784 5784 5783 5783 5783 5783 5783 5783 5783 5783 5783 5782 5782 5782 5782 5781
5773 5774 5774 5774 5775 5775 5776 5777 5778 5778 5778 5777 5778 5777 5778 5778 5778 5778 5778 5778 5779 5779 5779 5779 5779 5779 5778 5778 5777 5777 5776 5776 5777 5776 5776 5776 5776 5776 5775 5775 5775 5775 5774
5765 5766 5766 5767 5768 5768 5769 5770 5770 5771 5770 5770 5770 5770 5770 5770 5770 5770 5771 5771 5771 5771 5771 5772 5772 5772 5771 5771 5770 5770 5769 5769 5769 5769 5769 5769 5769 5768 5768 5768 5768 5767 5766
5757 5758 5759 5760 5760 5761 5762 5762 5763 5763 5763 5763 5763 5763 5762 5762 5762 5763 5763 5763 5763 5763 5763 5763 5764 5764 5764 5764 5763 5763 5762 5762 5762 5762 5762 5762 5761 5761 5760 5760 5760 5759 5758
5750 5750 5751 5752 5753 5754 5755 5755 5756 5756 5756 5756 5755 5755 5755 5754 5754 5755 5755 5755 5755 5755 5755 5755 5756 5756 5756 5756 5756 5755 5755 5755 5755 5755 5754 5754 5754 5753 5753 5752 5752 5752 5751
5742 5743 5744 5745 5746 5747 5748 5748 5749 5749 5749 5748 5748 5748 5747 5747 5747 5747 5747 5747 5747 5747 5747 5747 5747 5747 5748 5748 5748 5748 5747 5747 5747 5746 5746 5746 5746 5746 5746 5745 5745 5745 5744
5735 5735 5736 5737 5738 5739 5740 5741 5742 5741 5741 5741 5741 5741 5740 5740 5740 5740 5740 5740 5739 5739 5740 5740 5740 5739 5740 5740 5739 5739 5739 5739 5739 5739 5739 5738 5738 5738 5738 5738 5738 5737 5737
5727 5728 5729 5730 5731 5732 5733 5734 5734 5734 5734 5734 5734 5733 5733 5733 5733 5733 5732 5732 5732 5732 5732 5732 5732 5732 5732 5732 5732 5732 5732 5731 5731 5730 5730 5730 5730 5730 5730 5730 5730 5729 5729